FW7740 Weather Reports


time (UTC)temp
F
wind
direction
speed
knots
gust
knots
rain 1hr
in
rain 24hr
in
rain mn
in
humidity
%
barometer
mb
20260510190623 72 333 1.7 2.6 0.00 0.00 0.00 33 1021.5
20260510190121 71 359 2.6 2.6 0.00 0.00 0.00 32 1021.5
20260510185617 72 359 5.2 7.0 0.00 0.00 0.00 31 1021.5
20260510185115 72 301 2.6 2.6 0.00 0.00 0.00 31 1021.5
20260510184612 72 335 1.7 1.7 0.00 0.00 0.00 30 1021.5
20260510184108 72 93 3.5 5.2 0.00 0.00 0.00 32 1021.5
20260510183603 72 355 3.5 2.6 0.00 0.00 0.00 30 1021.5
20260510183058 72 350 0.9 0.9 0.00 0.00 0.00 32 1021.5
20260510182555 72 306 0.9 0.9 0.00 0.00 0.00 32 1021.5
20260510182050 71 352 4.3 5.2 0.00 0.00 0.00 32 1021.5
20260510181548 71 304 2.6 2.6 0.00 0.00 0.00 30 1021.1
20260510181044 71 2 3.5 5.2 0.00 0.00 0.00 30 1021.1
20260510180541 71 77 2.6 4.3 0.00 0.00 0.00 30 1021.1
20260510180039 72 1 1.7 1.7 0.00 0.00 0.00 29 1021.5
20260510175538 72 346 2.6 2.6 0.00 0.00 0.00 31 1021.1
20260510175035 71 338 1.7 1.7 0.00 0.00 0.00 31 1021.1
20260510174533 71 277 2.6 4.3 0.00 0.00 0.00 31 1021.5
20260510174030 71 277 2.6 4.3 0.00 0.00 0.00 31 1021.1
20260510173525 71 18 5.2 6.1 0.00 0.00 0.00 31 1021.1
20260510173022 70 329 5.2 6.1 0.00 0.00 0.00 31 1021.1
20260510172518 70 350 2.6 4.3 0.00 0.00 0.00 32 1021.1
20260510172015 71 347 3.5 4.3 0.00 0.00 0.00 32 1020.8
20260510171511 70 18 3.5 4.3 0.00 0.00 0.00 31 1021.1
20260510171008 70 34 2.6 1.7 0.00 0.00 0.00 31 1020.8
20260510170504 70 328 1.7 2.6 0.00 0.00 0.00 33 1021.1
20260510170001 71 323 3.5 4.3 0.00 0.00 0.00 33 1020.8
20260510165457 70 337 1.7 0.9 0.00 0.00 0.00 37 1021.1
20260510164954 69 358 3.5 4.3 0.00 0.00 0.00 34 1020.8
20260510164451 69 332 4.3 5.2 0.00 0.00 0.00 34 1021.1
20260510163946 69 351 3.5 2.6 0.00 0.00 0.00 34 1020.8
20260510163442 70 68 2.6 4.3 0.00 0.00 0.00 32 1021.1
20260510162937 69 352 2.6 5.2 0.00 0.00 0.00 32 1020.8
20260510162434 69 14 2.6 2.6 0.00 0.00 0.00 33 1020.8
20260510161930 68 359 6.1 7.0 0.00 0.00 0.00 32 1020.8
20260510161426 68 359 6.1 7.0 0.00 0.00 0.00 32 1020.8
20260510160924 68 330 2.6 5.2 0.00 0.00 0.00 37 1020.8
20260510160420 67 5 1.7 1.7 0.00 0.00 0.00 36 1020.8
20260510155913 67 325 1.7 1.7 0.00 0.00 0.00 35 1020.4
20260510155410 67 328 0.0 0.0 0.00 0.00 0.00 36 1020.8
20260510154906 67 342 3.5 5.2 0.00 0.00 0.00 36 1020.8
20260510154403 67 343 0.9 1.7 0.00 0.00 0.00 39 1020.8
20260510153856 67 328 4.3 6.1 0.00 0.00 0.00 38 1020.8
20260510153353 67 311 2.6 2.6 0.00 0.00 0.00 39 1020.8
20260510152850 66 351 0.9 0.9 0.00 0.00 0.00 41 1020.4
20260510152347 66 322 1.7 1.7 0.00 0.00 0.00 40 1020.8
20260510151843 66 58 2.6 4.3 0.00 0.00 0.00 39 1020.8
20260510151341 66 16 4.3 5.2 0.00 0.00 0.00 41 1021.1
20260510150837 66 331 2.6 2.6 0.00 0.00 0.00 41 1021.1
20260510150333 66 17 1.7 1.7 0.00 0.00 0.00 41 1021.5
20260510145829 66 13 1.7 1.7 0.00 0.00 0.00 40 1021.1
20260510145325 65 322 7.0 7.8 0.00 0.00 0.00 43 1021.1
20260510144822 65 312 2.6 1.7 0.00 0.00 0.00 44 1020.8
20260510144319 64 337 2.6 4.3 0.00 0.00 0.00 44 1021.1
20260510143819 64 322 3.5 4.3 0.00 0.00 0.00 49 1020.8
20260510143316 64 359 1.7 1.7 0.00 0.00 0.00 45 1020.8
20260510142813 64 65 1.7 1.7 0.00 0.00 0.00 46 1021.1
20260510142309 64 337 0.9 1.7 0.00 0.00 0.00 46 1021.1
20260510141806 64 0 2.6 2.6 0.00 0.00 0.00 46 1020.8
20260510141303 64 358 2.6 2.6 0.00 0.00 0.00 48 1020.8
20260510140801 64 5 0.9 0.9 0.00 0.00 0.00 47 1020.4
20260510140256 63 12 2.6 2.6 0.00 0.00 0.00 47 1020.4
20260510135755 62 328 0.9 0.9 0.00 0.00 0.00 52 1020.1
20260510135252 62 349 1.7 1.7 0.00 0.00 0.00 51 1020.1
20260510134750 62 343 2.6 2.6 0.00 0.00 0.00 52 1020.1
20260510134246 62 334 0.9 1.7 0.00 0.00 0.00 53 1019.8
20260510133742 62 333 0.9 0.9 0.00 0.00 0.00 55 1019.8
20260510133238 63 7 5.2 6.1 0.00 0.00 0.00 54 1019.4
20260510132733 63 344 0.9 0.9 0.00 0.00 0.00 55 1019.8
20260510132232 63 333 2.6 2.6 0.00 0.00 0.00 55 1019.8
20260510131728 63 345 0.0 0.0 0.00 0.00 0.00 59 1019.8
20260510131226 62 339 2.6 1.7 0.00 0.00 0.00 61 1019.8
20260510130722 61 24 2.6 2.6 0.00 0.00 0.00 63 1019.4
20260510130220 61 4 1.7 1.7 0.00 0.00 0.00 63 1019.4
20260510125715 62 354 0.9 0.9 0.00 0.00 0.00 63 1019.1
20260510125212 62 350 0.9 0.9 0.00 0.00 0.00 63 1019.1
20260510124709 61 331 0.9 0.9 0.00 0.00 0.00 65 1019.1
20260510124206 61 309 1.7 1.7 0.00 0.00 0.00 64 1019.1
20260510123701 61 334 2.6 1.7 0.00 0.00 0.00 66 1019.1
20260510123158 61 321 1.7 1.7 0.00 0.00 0.00 68 1019.1
20260510122654 60 325 2.6 2.6 0.00 0.00 0.00 71 1019.1
20260510122150 60 336 2.6 1.7 0.00 0.00 0.00 73 1019.1
20260510121647 60 317 2.6 1.7 0.00 0.00 0.00 77 1019.1
20260510121144 59 345 0.9 0.9 0.00 0.00 0.00 80 1018.4
20260510120642 59 346 0.0 0.0 0.00 0.00 0.00 83 1018.8
20260510120137 57 347 0.0 0.9 0.00 0.00 0.00 88 1018.4
20260510115634 56 350 0.0 0.0 0.00 0.00 0.00 94 1018.4
20260510115132 55 350 0.0 0.0 0.00 0.00 0.00 94 1018.1
20260510114627 55 350 0.0 0.0 0.00 0.00 0.00 94 1018.1
20260510114124 55 351 0.0 0.0 0.00 0.00 0.00 95 1017.6
20260510113619 55 339 0.0 0.0 0.00 0.00 0.00 95 1018.1
20260510113116 55 339 0.0 0.0 0.00 0.00 0.00 95 1017.6
20260510112613 55 339 0.0 0.0 0.00 0.00 0.00 95 1018.1
20260510112109 55 339 0.0 0.0 0.00 0.00 0.00 95 1017.6
20260510111606 55 339 0.0 0.0 0.00 0.00 0.00 95 1017.6
20260510111101 55 339 0.0 0.0 0.00 0.00 0.00 95 1017.6
20260510110553 55 339 0.0 0.0 0.00 0.00 0.00 95 1018.1
20260510110049 55 329 0.0 0.0 0.00 0.00 0.00 95 1017.6
20260510105544 55 306 0.0 0.0 0.00 0.00 0.00 95 1017.6
20260510105040 55 306 0.0 0.0 0.00 0.00 0.00 95 1018.1
20260510104536 55 306 0.0 0.0 0.00 0.00 0.00 95 1017.6
20260510104032 55 306 0.0 0.0 0.00 0.00 0.00 95 1017.6
20260510103531 55 306 0.0 0.0 0.00 0.00 0.00 95 1017.6
20260510103026 55 306 0.0 0.0 0.00 0.00 0.00 95 1017.3
20260510102522 55 306 0.0 0.0 0.00 0.00 0.00 95 1017.0
20260510102018 55 306 0.0 0.0 0.00 0.00 0.00 95 1017.0
20260510101516 55 306 0.0 0.0 0.00 0.00 0.00 95 1017.3
20260510101015 55 306 0.0 0.0 0.00 0.00 0.00 95 1017.0
20260510100510 55 306 0.0 0.0 0.00 0.00 0.00 95 1016.6
20260510100007 55 306 0.0 0.0 0.00 0.00 0.00 95 1016.6
20260510095503 55 306 0.0 0.0 0.00 0.00 0.00 95 1017.0
20260510095002 55 306 0.0 0.0 0.00 0.00 0.00 95 1016.3
20260510094456 55 306 0.0 0.0 0.00 0.00 0.00 95 1016.3
20260510093953 55 306 0.0 0.0 0.00 0.00 0.00 95 1016.3
20260510093448 55 306 0.0 0.0 0.00 0.00 0.00 94 1016.6
20260510092945 55 306 0.0 0.0 0.00 0.00 0.00 94 1016.3
20260510092442 55 306 0.0 0.0 0.00 0.00 0.00 94 1016.3
20260510091936 55 306 0.0 0.0 0.00 0.00 0.00 94 1016.3
20260510091434 55 306 0.0 0.0 0.00 0.00 0.00 94 1015.9
20260510090930 55 306 0.0 0.0 0.00 0.00 0.00 94 1016.3
20260510090427 55 306 0.0 0.0 0.00 0.00 0.00 94 1015.9
20260510085923 55 306 0.0 0.0 0.00 0.00 0.00 93 1015.9
20260510085418 56 306 0.0 0.0 0.00 0.00 0.00 93 1015.9
20260510084913 56 306 0.0 0.0 0.00 0.00 0.00 93 1015.9
20260510084411 55 306 0.0 0.0 0.00 0.00 0.00 93 1015.9
20260510083908 55 306 0.0 0.0 0.00 0.00 0.00 93 1015.9
20260510083404 56 306 0.0 0.0 0.00 0.00 0.00 93 1015.6
20260510082900 56 306 0.0 0.0 0.00 0.00 0.00 93 1015.9
20260510082357 56 306 0.0 0.0 0.00 0.00 0.00 94 1015.6
20260510081856 55 306 0.0 0.0 0.00 0.00 0.00 93 1015.6
20260510081352 55 306 0.0 0.0 0.00 0.00 0.00 93 1015.6
20260510080849 56 306 0.0 0.0 0.00 0.00 0.00 93 1015.6
20260510080348 56 306 0.0 0.0 0.00 0.00 0.00 93 1015.3
20260510075845 56 306 0.0 0.0 0.00 0.00 0.00 93 1015.3
20260510075343 56 306 0.0 0.0 0.00 0.00 0.00 93 1014.9
20260510074839 56 306 0.0 0.0 0.00 0.00 0.00 93 1015.6
20260510074337 56 306 0.0 0.0 0.00 0.00 0.00 92 1015.3
20260510073833 56 306 0.0 0.0 0.00 0.00 0.00 92 1015.3
20260510073324 56 306 0.0 0.0 0.00 0.00 0.00 93 1015.3
20260510072820 56 306 0.0 0.0 0.00 0.00 0.00 93 1015.3
20260510072316 56 306 0.0 0.0 0.00 0.00 0.00 93 1015.3
20260510071813 56 306 0.0 0.0 0.00 0.00 0.00 93 1015.3
20260510071308 56 306 0.0 0.0 0.00 0.00 0.00 93 1015.6
20260510070808 56 306 0.0 0.0 0.00 0.00 0.00 93 1015.3
20260510070304 56 307 0.0 0.0 0.00 0.00 0.00 93 1015.3
20260510065804 56 307 0.0 0.0 0.00 0.00 0.00 93 1015.3
20260510065301 56 306 0.0 0.0 0.00 0.00 0.00 92 1015.3
20260510064758 56 306 0.0 0.0 0.00 0.00 0.00 92 1015.3
20260510064256 56 306 0.0 0.0 0.00 0.00 0.00 92 1015.3
20260510063751 56 306 0.0 0.0 0.00 0.00 0.00 91 1015.3
20260510063248 57 306 0.0 0.0 0.00 0.00 0.00 91 1014.9
20260510062745 57 306 0.0 0.0 0.00 0.00 0.00 90 1014.9
20260510062241 57 307 0.9 0.9 0.00 0.00 0.00 90 1014.9
20260510061736 57 307 0.0 0.0 0.00 0.00 0.00 89 1014.9
20260510061233 57 307 0.0 0.0 0.00 0.00 0.00 89 1014.9
20260510060729 57 307 0.0 0.0 0.00 0.00 0.00 89 1014.9
20260510060226 58 307 0.0 0.0 0.00 0.00 0.00 89 1014.6
20260510055723 58 307 0.0 0.0 0.00 0.00 0.00 89 1014.6
20260510055222 58 291 1.7 1.7 0.00 0.00 0.00 90 1014.6
20260510054721 58 299 0.9 1.7 0.00 0.00 0.00 91 1014.6
20260510054217 58 313 0.0 0.0 0.00 0.00 0.00 91 1014.9
20260510053711 58 313 0.0 0.0 0.00 0.00 0.00 91 1014.9
20260510053208 58 314 0.0 0.0 0.00 0.00 0.00 91 1015.3
20260510052703 57 314 0.0 0.0 0.00 0.00 0.00 91 1015.3
20260510052200 57 314 0.0 0.0 0.00 0.00 0.00 91 1014.9
20260510051655 57 314 0.0 0.0 0.00 0.00 0.00 91 1014.9
20260510051152 57 314 0.0 0.0 0.00 0.00 0.00 91 1014.9
20260510050650 57 314 0.0 0.0 0.00 0.00 0.00 91 1014.9
20260510050147 57 314 0.0 0.0 0.00 0.00 0.00 91 1014.6
20260510045643 57 314 0.0 0.0 0.00 0.01 0.01 91 1014.6
20260510045140 58 314 0.0 0.0 0.00 0.01 0.01 90 1014.6
20260510044636 58 314 0.0 0.0 0.00 0.01 0.01 90 1014.6
20260510044134 58 314 0.0 0.0 0.00 0.01 0.01 89 1014.2
20260510043629 59 314 0.0 0.0 0.00 0.01 0.01 88 1014.2
20260510043126 59 317 0.0 0.0 0.00 0.01 0.01 88 1014.2
20260510042624 59 318 0.0 0.0 0.00 0.01 0.01 88 1014.6
20260510042119 59 318 0.0 0.0 0.00 0.01 0.01 87 1014.2
20260510041617 59 318 0.9 0.9 0.00 0.01 0.01 88 1013.8
20260510041114 59 350 0.0 0.0 0.00 0.01 0.01 87 1014.2
20260510040612 59 350 0.0 0.0 0.00 0.01 0.01 88 1014.2
20260510040108 59 343 0.0 0.0 0.00 0.01 0.01 88 1013.8
20260510035604 58 326 0.9 0.9 0.00 0.01 0.01 88 1013.8
20260510035103 57 305 1.7 1.7 0.00 0.01 0.01 92 1013.8
20260510034601 57 348 2.6 2.6 0.00 0.01 0.01 90 1013.5
20260510034058 57 305 0.0 0.0 0.00 0.01 0.01 92 1013.5
20260510033555 57 305 0.0 0.0 0.00 0.01 0.01 91 1013.1
20260510033052 58 305 0.0 0.0 0.00 0.01 0.01 91 1013.1
20260510032549 58 305 0.0 0.0 0.00 0.01 0.01 90 1013.1
20260510032044 58 304 0.0 0.0 0.00 0.01 0.01 90 1012.8
20260510031544 58 304 0.0 0.0 0.00 0.01 0.01 90 1013.1
20260510031041 59 315 0.0 0.0 0.00 0.01 0.01 90 1012.8
20260510030536 59 316 0.0 0.0 0.00 0.01 0.01 90 1013.1
20260510030034 59 316 0.0 0.0 0.00 0.01 0.01 90 1012.8
20260510025531 59 316 0.0 0.0 0.00 0.01 0.01 89 1013.1
20260510025029 59 316 0.0 0.0 0.00 0.01 0.01 88 1012.8
20260510024525 59 316 0.0 0.0 0.00 0.01 0.01 89 1012.8
20260510024021 60 316 0.0 0.0 0.00 0.01 0.01 88 1012.8
20260510023517 60 316 0.0 0.0 0.00 0.01 0.01 86 1012.5
20260510023015 60 316 0.0 0.0 0.00 0.01 0.01 87 1012.5
20260510022514 60 316 0.0 0.0 0.00 0.01 0.01 86 1012.1
20260510022014 60 316 0.0 0.0 0.00 0.01 0.01 85 1012.1
20260510021511 61 316 0.0 0.0 0.00 0.01 0.01 84 1012.1
20260510021008 61 316 0.0 0.0 0.00 0.01 0.01 82 1011.8
20260510020502 62 316 0.0 0.0 0.00 0.01 0.01 82 1011.8
20260510015958 62 316 0.0 0.0 0.00 0.01 0.01 82 1011.8
20260510015454 62 323 0.0 0.0 0.00 0.01 0.01 81 1011.8
20260510014949 63 323 0.0 0.0 0.00 0.01 0.01 80 1011.8
20260510014447 63 329 0.0 0.0 0.00 0.01 0.01 80 1011.4
20260510013944 63 329 0.0 0.0 0.00 0.01 0.01 79 1011.4
20260510013438 64 329 0.0 0.0 0.00 0.01 0.01 78 1011.4
20260510012934 64 329 0.0 0.0 0.00 0.01 0.01 76 1011.4
20260510012429 65 311 0.0 0.0 0.00 0.01 0.01 76 1011.1
20260510011924 66 311 0.0 0.0 0.00 0.01 0.01 74 1010.8
20260510011419 66 327 0.0 0.0 0.00 0.01 0.01 74 1010.8
20260510010916 67 327 0.0 0.0 0.00 0.01 0.01 72 1011.1
20260510010413 68 327 0.0 0.0 0.00 0.01 0.01 71 1010.8
20260510005909 68 327 0.0 0.0 0.00 0.01 0.01 68 1010.8
20260510005406 69 327 0.0 0.0 0.00 0.01 0.01 67 1010.8
20260510004903 69 326 0.0 0.0 0.00 0.01 0.01 64 1011.1
20260510004401 70 326 0.0 0.0 0.00 0.01 0.01 63 1010.8
20260510003858 70 326 0.0 0.0 0.00 0.01 0.01 62 1010.8
20260510003355 70 326 0.0 0.0 0.00 0.01 0.01 59 1010.4
20260510002854 71 326 0.0 0.0 0.00 0.01 0.01 58 1010.8
20260510002351 71 326 0.0 0.0 0.00 0.01 0.01 58 1010.8
20260510001848 71 326 0.0 0.0 0.00 0.01 0.01 57 1010.8
20260510001346 71 326 0.0 0.0 0.00 0.01 0.01 55 1010.4
20260510000842 72 326 0.0 0.0 0.00 0.01 0.01 55 1010.4
20260510000341 72 326 0.0 0.0 0.00 0.01 0.01 52 1010.4
20260509235836 73 326 0.0 0.0 0.00 0.01 0.01 50 1010.4
20260509235332 73 326 0.0 0.0 0.00 0.01 0.01 50 1010.8
20260509234828 74 326 0.0 0.0 0.00 0.01 0.01 48 1010.8
20260509234326 75 326 0.0 0.0 0.00 0.01 0.01 47 1010.4
20260509233823 75 326 0.0 0.0 0.00 0.01 0.01 47 1010.8
20260509233321 75 326 0.0 0.0 0.00 0.01 0.01 45 1010.8
20260509232816 76 325 0.0 0.0 0.00 0.01 0.01 42 1010.4
20260509232314 76 325 0.0 0.0 0.00 0.01 0.01 44 1010.4
20260509231810 77 325 0.0 0.0 0.00 0.01 0.01 40 1010.4
20260509231307 77 325 0.0 0.0 0.00 0.01 0.01 38 1010.8
20260509230805 78 325 0.0 0.0 0.00 0.01 0.01 38 1010.4
20260509230302 78 325 0.0 0.0 0.00 0.01 0.01 36 1010.4
20260509225757 79 325 0.9 0.9 0.00 0.01 0.01 38 1010.4
20260509225254 78 311 1.7 1.7 0.00 0.01 0.01 34 1010.4
20260509224749 78 322 0.0 0.0 0.00 0.01 0.01 37 1010.1
20260509224247 78 321 0.9 0.9 0.00 0.01 0.01 36 1010.4
20260509223743 79 323 0.0 0.0 0.00 0.01 0.01 37 1010.4
20260509223240 80 323 0.9 0.9 0.00 0.01 0.01 36 1010.4
20260509222737 80 324 0.0 0.0 0.00 0.01 0.01 33 1010.4
20260509222232 80 336 0.0 0.0 0.00 0.01 0.01 34 1010.4
20260509221728 80 316 1.7 1.7 0.00 0.01 0.01 36 1010.4
20260509221225 80 339 0.9 0.9 0.00 0.01 0.01 34 1010.1
20260509220720 81 324 0.9 0.9 0.00 0.01 0.01 34 1010.4
20260509220218 81 346 0.0 0.0 0.00 0.01 0.01 32 1010.4
20260509215713 82 324 0.0 0.0 0.00 0.01 0.01 33 1010.4
20260509215210 84 332 0.0 0.0 0.00 0.01 0.01 31 1010.4
20260509214707 84 349 0.0 0.0 0.00 0.01 0.01 29 1010.4
20260509214204 84 323 0.9 0.9 0.00 0.01 0.01 28 1010.4
20260509213701 84 323 0.0 0.0 0.00 0.01 0.01 27 1010.4
20260509213156 84 325 0.0 0.0 0.00 0.01 0.01 25 1010.4
20260509212654 84 315 0.0 0.0 0.00 0.01 0.01 30 1010.8
20260509212151 85 0 2.6 4.3 0.00 0.01 0.01 25 1010.8
20260509211646 85 333 0.0 0.0 0.00 0.01 0.01 27 1010.4
20260509211143 85 326 0.9 0.9 0.00 0.01 0.01 30 1010.8
20260509210641 86 343 0.9 0.0 0.00 0.01 0.01 29 1010.8
20260509210137 86 328 0.9 0.9 0.00 0.01 0.01 29 1010.8
20260509205632 85 330 0.0 0.9 0.00 0.01 0.01 28 1010.4
20260509205127 84 329 0.0 0.0 0.00 0.01 0.01 31 1010.8
20260509204623 85 324 1.7 1.7 0.00 0.01 0.01 27 1010.8
20260509204119 84 18 0.9 1.7 0.00 0.01 0.01 29 1010.8
20260509203616 84 88 3.5 4.3 0.00 0.01 0.01 26 1010.8
20260509203109 85 343 0.0 0.9 0.00 0.01 0.01 28 1011.1
20260509202608 85 346 0.9 0.9 0.00 0.01 0.01 29 1010.8
20260509202059 84 346 0.9 0.9 0.00 0.01 0.01 27 1011.1
20260509201558 84 346 0.9 0.9 0.00 0.01 0.01 27 1011.1
20260509201057 84 1 5.2 7.0 0.00 0.01 0.01 28 1011.1
20260509200556 85 352 0.0 0.9 0.00 0.01 0.01 27 1011.1
20260509200053 85 346 2.6 4.3 0.00 0.01 0.01 29 1011.4
20260509195548 85 299 0.9 1.7 0.00 0.01 0.01 28 1011.4
20260509195043 85 10 0.9 1.7 0.00 0.01 0.01 27 1011.4
20260509194538 83 20 1.7 1.7 0.00 0.01 0.01 31 1011.4
20260509194036 83 317 1.7 1.7 0.00 0.01 0.01 29 1011.1
20260509193531 84 11 0.9 0.9 0.00 0.01 0.01 29 1011.4
20260509193027 84 191 2.6 4.3 0.00 0.01 0.01 30 1011.1
20260509192523 83 344 1.7 1.7 0.00 0.01 0.01 29 1011.4
20260509192019 83 351 1.7 2.6 0.00 0.01 0.01 30 1011.1
20260509191513 83 52 2.6 2.6 0.00 0.01 0.01 29 1011.4
20260509191009 83 4 2.6 4.3 0.00 0.01 0.01 29 1011.4